Wetbulb
40.02 34.87 30.94 34.41 35.60 35.15 33.85 31.94 30.32 32.69 36.38 33.84 33.26 33.96 36.65 38.32 37.50 37.44 37.19 37.79 37.69 39.56 40.61 45.82 48.16 48.50 47.43 46.72 46.78 47.03 46.31 44.76 43.67 41.67 40.59 39.76 40.83 43.10 43.96 45.52 46.91 46.98 47.90 48.90
35.07 31.42 37.44 38.77 38.16 36.43 33.98 31.48 31.76 33.91 36.23 33.84 33.00 34.85 38.47 38.79 36.84 37.42 37.69 36.63 37.15 38.41 40.59 43.70 45.28 45.84 45.92 45.40 45.69 45.76 45.39 44.00 43.19 41.17 40.52 41.74 42.28 42.64 43.57 45.56 46.28 47.35 48.04 48.28
32.36 35.57 38.86 37.82 35.72 35.03 33.36 31.69 31.77 32.74 34.88 34.52 31.97 32.79 36.47 38.98 39.07 38.81 38.34 37.36 37.15 38.21 39.85 41.49 43.66 44.00 44.22 43.99 44.09 44.71 43.99 42.18 40.91 41.13 42.01 42.58 43.10 42.87 43.15 44.19 45.10 46.22 47.60 47.59
34.91 38.01 36.36 34.80 34.47 35.40 31.02 35.28 35.13 34.03 30.98 27.90 32.53 26.46 33.46 36.49 36.69 37.55 37.34 36.67 36.65 38.22 40.33 41.69 43.34 42.87 43.23 43.13 43.42 43.04 42.05 41.06 40.67 40.73 40.85 41.44 41.29 40.97 42.53 43.09 44.16 45.02 46.92 47.12
32.56 33.48 33.45 32.99 33.83 35.88 32.74 35.79 34.48 33.21 29.58 27.61 28.92 27.05 32.67 35.76 35.44 36.49 36.46 37.29 37.65 38.75 40.63 41.49 42.63 43.68 43.67 42.92 40.51 40.17 40.66 40.25 40.17 39.82 41.05 41.17 40.63 41.69 42.47 42.94 43.25 43.97 45.63 47.15
33.03 37.23 35.67 34.84 35.53 35.85 37.17 35.55 35.18 33.45 29.52 18.14 28.17 28.08 29.39 32.86 34.43 35.69 36.69 37.17 38.55 38.67 40.05 41.30 42.62 43.27 41.70 40.76 39.63 39.48 39.46 39.10 39.67 40.44 41.29 41.39 40.80 41.23 41.30 42.05 42.03 42.67 44.34 45.37
32.20 32.55 35.03 36.81 32.99 36.11 34.79 30.13 18.94 16.97 13.49 19.00 27.70 26.49 30.49 34.82 35.53 36.03 37.35 37.09 37.68 38.71 38.88 40.20 40.74 40.42 40.45 39.76 39.20 39.45 39.09 38.42 39.14 39.93 40.70 41.52 41.19 41.26 41.45 41.91 41.75 42.09 42.82 43.48
24.51 21.28 32.10 35.46 33.27 30.79 31.60 30.41 22.51 17.36 18.65 23.38 26.45 24.42 30.80 35.77 36.71 37.25 37.31 37.72 38.28 38.09 39.15 40.09 40.26 40.20 40.30 40.50 39.70 39.51 38.66 38.37 38.61 39.29 40.30 41.38 41.79 40.97 41.41 41.86 41.78 42.00 42.18 43.28
26.41 27.44 33.54 34.54 35.00 34.14 30.59 27.34 33.08 24.39 18.98 21.52 26.37 29.80 34.80 34.84 34.81 35.15 35.85 37.58 37.18 37.91 38.92 39.93 40.47 40.17 40.05 39.91 39.80 38.95 38.80 38.31 38.53 39.13 39.85 40.74 41.40 41.23 41.08 41.86 42.32 42.32 42.57 44.55
34.47 26.63 29.15 32.73 34.62 33.53 30.95 33.77 25.65 24.81 17.14 17.88 21.99 25.18 29.40 31.32 32.78 34.68 34.82 33.92 34.33 37.37 38.35 39.04 39.95 40.17 40.03 39.77 40.12 39.23 39.01 38.13 38.13 38.83 39.92 40.71 41.19 41.58 41.92 42.04 41.83 42.54 43.42 44.92
35.97 32.32 26.47 30.04 27.82 28.22 28.61 26.72 29.48 30.31 27.97 22.36 19.83 25.86 33.87 33.86 35.06 34.94 35.15 36.32 35.84 35.34 37.74 38.70 39.35 40.22 40.34 39.73 39.58 39.30 38.59 37.94 37.69 38.46 39.92 40.31 40.61 41.51 41.86 41.61 41.94 42.91 44.71 45.34
38.06 32.46 25.33 26.47 31.63 33.06 30.32 30.21 31.07 25.55 22.63 25.02 26.13 26.21 36.74 36.08 36.16 36.75 36.15 37.59 37.48 38.00 38.26 36.93 38.50 39.20 38.90 39.05 38.94 38.96 38.46 37.83 37.75 38.29 39.78 40.38 40.76 41.18 41.00 41.29 42.31 44.05 44.72 45.53
37.01 30.79 23.53 25.41 29.15 29.04 27.50 30.63 32.81 33.37 29.16 22.73 23.90 25.38 35.75 36.32 36.19 37.49 36.64 37.29 38.59 38.75 39.13 38.66 36.40 36.76 37.53 37.86 38.46 38.42 38.29 37.69 37.58 38.40 39.53 40.01 40.12 40.35 40.61 41.33 42.45 44.46 44.24 44.66
39.12 30.18 28.22 26.63 27.31 28.81 25.02 28.71 32.19 31.48 25.60 26.35 25.54 27.45 32.89 33.24 34.52 35.10 35.02 35.95 36.97 38.06 37.85 38.22 37.81 37.98 37.12 37.84 38.33 38.15 38.30 37.78 37.25 37.80 38.96 39.09 39.47 40.25 40.85 41.70 43.99 44.54 44.41 44.28
34.94 25.32 23.57 25.40 28.60 29.30 28.19 28.32 29.80 25.78 30.84 27.38 28.86 27.67 34.31 34.61 34.52 34.87 36.76 38.73 38.51 33.20 33.28 35.32 35.36 35.94 36.68 36.99 37.46 38.63 38.63 37.58 37.49 37.59 38.38 38.64 39.84 40.68 40.96 42.25 43.11 43.82 44.38 46.63
34.82 24.84 25.24 23.03 25.36 27.56 26.52 28.74 29.24 26.68 25.05 24.57 25.19 26.78 36.87 36.88 37.03 35.92 37.94 38.61 37.61 37.38 35.65 33.40 34.83 34.69 34.87 33.39 37.15 37.89 36.66 36.75 37.31 37.10 37.41 38.93 39.93 40.35 40.32 42.02 42.63 43.87 45.54 45.92
31.86 27.09 26.02 22.68 21.16 22.60 20.52 25.76 27.61 28.70 29.37 32.22 26.02 33.21 35.89 34.83 36.06 36.67 37.94 38.06 37.36 37.20 37.15 36.65 36.19 35.03 34.51 35.49 36.72 37.19 37.55 37.21 37.11 36.88 37.07 38.57 39.25 39.45 40.10 41.32 42.34 44.56 44.62 45.41
30.38 29.13 28.23 17.81 18.73 12.95 27.10 31.49 31.99 30.03 31.31 32.20 32.41 34.31 35.86 36.68 37.13 37.97 38.78 38.01 37.58 37.56 36.99 36.59 36.11 35.35 35.07 34.66 34.10 36.50 37.32 37.04 36.72 36.80 37.35 38.28 38.22 37.93 39.01 39.64 41.87 43.91 44.19 44.06
35.46 31.25 25.92 19.84 16.17 24.24 27.62 29.98 29.31 29.11 29.94 33.67 33.24 35.20 35.91 36.90 35.91 35.10 37.55 38.26 37.84 37.17 36.98 36.83 36.40 35.49 34.45 33.57 34.31 36.07 35.32 35.48 35.66 35.86 36.97 37.87 38.37 37.29 37.99 39.87 42.16 43.10 42.82 42.44
34.68 33.37 27.57 23.77 13.63 14.28 26.69 32.01 34.66 34.56 26.32 35.53 35.27 35.48 35.39 35.75 31.24 32.15 36.37 36.30 36.00 36.55 36.24 36.05 36.09 34.85 33.96 33.42 34.21 34.24 33.53 34.20 34.69 34.94 35.95 37.33 37.96 38.23 38.45 38.35 39.18 38.51 39.55 38.05
28.67 26.77 23.78 17.46 13.38 22.13 31.55 32.50 34.56 23.92 27.90 34.23 36.06 35.91 36.26 34.40 35.19 35.95 35.14 34.56 35.52 35.49 35.38 35.43 35.85 34.56 32.96 32.52 32.26 32.09 32.30 32.41 33.34 33.99 34.46 34.94 36.48 37.29 39.34 38.32 37.77 37.68 36.43 35.69
27.36 25.17 22.91 18.74 14.22 17.91 33.25 31.64 29.79 33.16 34.67 36.17 35.45 35.49 35.39 35.15 34.92 33.62 32.93 32.52 32.53 32.19 32.60 33.62 33.47 33.45 33.41 31.56 31.81 31.65 31.50 31.91 32.13 32.58 33.04 33.22 33.69 35.14 37.07 36.95 36.37 35.48 35.54 34.61
22.02 27.73 25.73 27.72 26.92 33.22 35.31 33.46 35.84 37.23 36.50 36.23 36.00 36.78 35.91 33.31 32.59 32.73 32.18 32.07 31.32 30.75 30.47 30.92 30.06 29.88 29.35 29.14 29.66 29.86 29.96 29.86 30.08 30.76 29.65 31.50 32.60 32.69 33.65 35.19 34.23 33.49 34.28 33.34
27.06 28.83 27.17 28.00 29.65 30.44 34.12 35.83 37.44 37.67 36.95 36.61 36.76 35.94 34.40 32.19 31.97 31.38 31.09 30.45 29.44 28.74 28.95 27.64 25.98 26.18 26.88 27.45 29.14 27.94 27.48 30.64 31.63 31.93 31.08 31.48 32.31 32.80 32.64 32.92 34.10 34.77 34.12 34.45
26.49 28.59 22.69 24.59 28.36 30.32 31.92 34.03 36.26 35.07 34.58 33.62 32.77 33.75 32.81 32.58 30.96 30.18 28.40 27.50 27.39 27.50 26.14 24.06 24.05 21.90 22.63 23.27 25.76 25.36 30.04 30.89 30.77 31.65 31.50 31.65 31.90 32.67 32.67 32.33 33.62 34.73 34.98 35.91
26.12 25.61 26.01 25.28 30.25 31.23 32.39 34.88 34.11 33.22 31.91 32.14 32.07 29.89 29.52 30.28 29.63 28.04 26.99 26.94 26.75 26.00 23.67 23.75 23.04 22.73 23.30 21.16 22.22 22.53 28.41 30.60 30.70 31.12 31.44 31.93 31.92 32.12 32.92 33.04 32.88 36.15 36.81 37.24
MSLP
1014.04 1014.45 1013.90 1013.25 1013.28 1013.04 1012.96 1012.94 1012.88 1012.39 1012.39 1012.50 1012.21 1011.35 1010.17 1009.46 1009.68 1009.55 1010.06 1010.76 1010.94 1011.18 1011.60 1011.97 1012.58 1013.05 1013.78 1014.53 1014.92 1015.53 1016.23 1016.77 1016.92 1017.47 1017.77 1018.12 1017.90 1017.63 1017.75 1017.51 1017.55 1017.66 1017.51 1017.14
1014.48 1013.87 1013.05 1013.20 1013.21 1013.14 1013.23 1013.08 1012.91 1012.55 1012.53 1012.59 1012.22 1011.16 1009.36 1008.92 1008.86 1009.00 1009.63 1010.94 1011.23 1011.64 1012.31 1012.69 1013.27 1013.58 1014.14 1014.89 1015.36 1015.97 1016.30 1016.73 1016.97 1017.28 1017.43 1017.71 1017.85 1017.74 1017.85 1017.61 1017.58 1017.74 1017.69 1017.35
1013.84 1012.92 1012.39 1012.97 1013.05 1013.21 1013.25 1013.17 1013.12 1013.22 1013.06 1012.79 1012.72 1011.37 1009.71 1008.77 1008.74 1009.31 1010.12 1010.99 1011.65 1011.88 1012.64 1013.27 1013.81 1014.38 1014.72 1015.19 1015.47 1016.11 1016.41 1016.67 1017.01 1017.21 1017.33 1017.65 1017.82 1018.00 1018.06 1017.92 1017.92 1017.90 1017.74 1017.52
1013.72 1012.76 1012.60 1012.79 1013.05 1012.95 1013.30 1013.07 1013.32 1013.79 1014.14 1014.25 1013.32 1012.50 1010.06 1009.27 1009.33 1009.75 1010.49 1011.38 1012.32 1012.81 1012.88 1013.42 1013.82 1014.65 1015.28 1015.63 1015.82 1016.10 1016.33 1016.70 1017.17 1017.31 1017.43 1017.74 1018.04 1018.24 1018.18 1018.12 1018.07 1018.03 1017.79 1017.61
1013.12 1013.08 1012.92 1013.03 1013.06 1013.10 1013.50 1013.58 1014.00 1014.61 1015.22 1015.34 1014.42 1013.98 1010.62 1009.78 1009.90 1010.17 1010.88 1011.39 1012.19 1013.07 1013.21 1013.63 1013.95 1014.37 1015.01 1015.64 1016.03 1016.35 1016.56 1016.84 1017.20 1017.38 1017.40 1017.63 1018.11 1018.17 1018.05 1017.94 1018.03 1018.05 1017.89 1017.62
1013.59 1013.43 1013.19 1013.17 1013.47 1013.41 1013.95 1014.59 1015.42 1016.20 1016.84 1016.77 1014.86 1013.98 1011.78 1010.46 1010.19 1010.31 1010.94 1011.63 1012.09 1013.09 1013.51 1013.91 1014.20 1014.64 1015.29 1015.76 1016.21 1016.52 1016.80 1017.09 1017.36 1017.50 1017.32 1017.58 1017.90 1018.20 1018.20 1018.04 1018.12 1018.22 1018.07 1017.92
1013.98 1014.09 1013.87 1013.56 1013.89 1014.24 1014.51 1015.49 1017.32 1018.25 1018.48 1017.18 1015.42 1014.57 1011.82 1010.77 1010.37 1010.49 1010.95 1011.67 1012.36 1012.89 1013.56 1014.19 1014.62 1015.05 1015.49 1016.08 1016.38 1016.60 1016.77 1017.10 1017.36 1017.46 1017.38 1017.52 1017.76 1017.94 1018.12 1018.07 1018.00 1018.29 1018.32 1018.09
1013.72 1014.95 1014.15 1013.72 1013.62 1013.91 1014.88 1015.32 1016.52 1017.36 1018.11 1017.01 1015.86 1014.24 1011.74 1011.27 1010.89 1010.88 1010.97 1011.68 1012.47 1013.09 1013.59 1014.17 1014.65 1015.05 1015.47 1015.99 1016.25 1016.40 1016.75 1016.98 1017.27 1017.43 1017.47 1017.35 1017.75 1017.86 1017.93 1017.99 1017.94 1018.07 1018.36 1018.31
1012.72 1014.12 1014.44 1014.21 1014.19 1014.19 1015.08 1015.18 1015.43 1016.61 1017.89 1016.80 1015.16 1013.52 1012.25 1011.76 1011.70 1011.86 1011.76 1011.97 1012.60 1013.12 1013.62 1014.14 1014.61 1014.92 1015.33 1015.75 1015.96 1016.10 1016.43 1016.78 1017.08 1017.34 1017.41 1017.40 1017.63 1017.83 1017.85 1017.95 1018.00 1017.96 1018.14 1018.21
1011.45 1013.73 1015.14 1014.87 1014.75 1014.63 1014.43 1014.46 1015.41 1016.17 1016.87 1016.44 1014.82 1013.62 1012.32 1012.43 1012.43 1012.51 1012.63 1012.47 1012.45 1012.94 1013.36 1013.93 1014.38 1014.69 1015.11 1015.28 1015.56 1015.91 1016.01 1016.28 1016.71 1017.05 1017.20 1017.34 1017.59 1017.79 1017.72 1017.80 1017.93 1017.95 1017.96 1018.06
1011.31 1012.93 1015.67 1015.43 1015.02 1014.53 1014.88 1014.41 1014.62 1014.76 1015.25 1015.36 1014.93 1013.26 1011.86 1012.31 1012.53 1012.66 1012.89 1012.85 1012.80 1013.06 1013.30 1013.61 1013.98 1014.25 1014.73 1015.07 1015.47 1015.75 1015.94 1016.17 1016.52 1016.72 1016.84 1017.07 1017.48 1017.57 1017.68 1017.73 1017.74 1017.85 1017.81 1017.88
1011.19 1012.85 1014.94 1015.19 1014.92 1014.68 1014.39 1014.03 1013.93 1014.22 1015.24 1015.21 1014.56 1013.50 1012.21 1012.45 1012.69 1012.59 1012.97 1012.97 1012.99 1013.03 1013.30 1013.57 1013.68 1013.99 1014.56 1015.01 1015.32 1015.66 1015.91 1016.12 1016.30 1016.59 1016.73 1016.88 1017.22 1017.47 1017.60 1017.71 1017.59 1017.67 1017.79 1017.77
1010.40 1012.32 1014.63 1015.68 1015.61 1015.12 1014.63 1014.12 1013.65 1013.77 1014.35 1014.80 1014.69 1013.63 1012.83 1012.85 1012.97 1012.86 1012.89 1013.05 1013.34 1013.68 1013.86 1014.04 1013.97 1014.15 1014.44 1014.75 1015.01 1015.30 1015.70 1016.04 1016.23 1016.48 1016.66 1016.92 1016.99 1017.33 1017.56 1017.58 1017.48 1017.56 1017.76 1017.70
1009.07 1010.91 1012.13 1012.68 1012.64 1012.99 1014.27 1013.68 1013.65 1013.93 1014.64 1014.55 1013.90 1013.37 1013.13 1013.15 1013.10 1013.16 1013.18 1013.31 1013.76 1014.24 1014.64 1014.75 1014.66 1014.83 1014.80 1014.76 1014.59 1014.87 1015.17 1015.55 1016.03 1016.52 1016.67 1016.97 1017.04 1017.13 1017.26 1017.32 1017.46 1017.44 1017.63 1017.68
1009.23 1010.78 1012.25 1012.97 1012.81 1012.62 1012.71 1012.83 1013.08 1013.40 1013.45 1013.75 1013.53 1013.12 1012.25 1012.63 1013.16 1013.40 1013.47 1013.70 1014.19 1014.61 1015.15 1015.17 1015.22 1015.21 1014.89 1014.76 1014.77 1014.76 1014.84 1015.09 1015.48 1016.23 1016.57 1016.71 1017.00 1017.07 1017.11 1017.12 1017.32 1017.45 1017.36 1017.56
1009.40 1011.33 1012.41 1013.66 1013.54 1013.15 1013.04 1012.74 1012.63 1012.88 1013.09 1013.10 1013.05 1012.56 1011.75 1012.08 1012.80 1013.44 1013.76 1014.09 1014.66 1015.14 1015.47 1015.44 1015.45 1015.36 1015.20 1014.93 1014.71 1014.59 1014.74 1015.14 1015.41 1015.70 1016.17 1016.42 1016.85 1016.84 1017.13 1017.22 1017.20 1017.35 1017.44 1017.37
1009.09 1010.74 1012.66 1014.33 1014.46 1013.94 1013.17 1011.85 1012.05 1012.23 1012.17 1012.09 1012.44 1011.40 1011.76 1012.53 1012.95 1013.28 1013.84 1014.32 1014.94 1015.41 1015.67 1015.80 1015.65 1015.51 1015.45 1015.20 1014.67 1014.48 1014.47 1014.71 1015.28 1015.69 1015.96 1016.24 1016.53 1016.76 1016.92 1017.34 1017.22 1017.14 1017.34 1017.39
1008.98 1010.21 1012.80 1014.67 1014.83 1014.01 1011.19 1010.42 1010.28 1010.75 1010.89 1011.18 1011.20 1011.18 1011.44 1012.28 1013.19 1013.55 1013.83 1014.40 1015.09 1015.52 1015.92 1016.05 1015.90 1015.67 1015.42 1015.27 1014.75 1014.28 1014.40 1014.53 1015.14 1015.61 1016.04 1016.23 1016.49 1016.73 1016.73 1017.27 1017.41 1017.08 1017.21 1017.35
1008.70 1009.93 1013.01 1014.48 1014.71 1013.00 1011.35 1010.55 1010.25 1010.21 1009.89 1009.77 1010.58 1011.14 1011.74 1012.62 1013.56 1014.41 1014.49 1014.71 1015.16 1015.59 1015.98 1016.15 1016.16 1015.98 1015.81 1015.55 1015.07 1014.69 1014.68 1014.95 1015.26 1015.43 1015.70 1016.08 1016.53 1016.93 1016.96 1016.90 1017.32 1017.31 1017.17 1017.38
1008.94 1009.58 1011.46 1013.58 1013.84 1012.31 1010.25 1008.98 1008.63 1009.01 1009.11 1008.60 1009.22 1010.35 1011.41 1012.16 1013.59 1014.62 1014.83 1015.09 1015.52 1015.81 1016.15 1016.41 1016.46 1016.45 1016.32 1016.13 1015.70 1015.37 1015.43 1015.43 1015.67 1015.96 1015.83 1015.73 1015.99 1016.67 1017.07 1016.95 1017.18 1017.50 1017.36 1017.38
1009.59 1010.68 1011.29 1011.99 1012.34 1011.00 1009.14 1008.72 1008.56 1009.20 1008.66 1007.96 1008.64 1009.87 1011.09 1011.88 1012.62 1014.04 1015.00 1015.66 1016.10 1016.50 1016.73 1016.75 1016.81 1016.89 1016.88 1016.68 1016.30 1016.19 1016.03 1016.04 1015.97 1015.86 1016.09 1016.14 1016.04 1015.68 1016.88 1016.86 1017.07 1017.30 1017.86 1017.65
1008.67 1009.80 1010.83 1011.09 1011.04 1010.02 1008.32 1008.75 1008.24 1007.64 1007.81 1007.99 1008.78 1009.68 1010.99 1012.01 1013.09 1014.16 1015.16 1015.98 1016.56 1016.99 1017.10 1017.30 1017.36 1017.29 1017.32 1017.06 1016.68 1016.82 1016.81 1016.69 1016.19 1015.96 1016.34 1016.30 1016.41 1016.28 1016.36 1016.88 1017.13 1017.12 1018.07 1018.12
1008.48 1007.49 1008.46 1008.87 1008.15 1007.61 1007.39 1007.14 1007.15 1007.13 1007.71 1008.71 1009.34 1010.24 1011.07 1012.35 1013.44 1014.42 1015.53 1016.33 1016.97 1017.41 1017.60 1017.78 1017.89 1017.92 1017.74 1017.58 1017.46 1017.49 1017.51 1017.10 1016.76 1016.54 1016.76 1016.81 1016.77 1016.68 1016.54 1016.97 1017.06 1017.62 1017.62 1018.24
1007.79 1007.27 1007.69 1008.28 1008.05 1007.67 1007.55 1007.30 1007.17 1007.50 1008.17 1008.98 1009.68 1010.43 1011.60 1012.68 1013.88 1014.87 1015.88 1016.80 1017.39 1017.81 1018.06 1018.37 1018.43 1018.33 1018.34 1018.07 1017.79 1017.69 1017.60 1017.33 1017.10 1016.81 1017.09 1017.07 1016.73 1016.90 1016.95 1017.11 1017.00 1017.09 1017.68 1017.60
1006.88 1007.23 1007.91 1008.50 1008.40 1008.25 1008.04 1007.78 1007.97 1008.59 1009.02 1009.77 1010.80 1011.39 1012.31 1013.34 1014.60 1015.44 1016.48 1017.31 1017.79 1018.11 1018.34 1018.46 1018.66 1018.99 1019.20 1018.76 1018.30 1017.91 1017.59 1017.50 1017.40 1017.25 1017.25 1017.14 1016.86 1016.92 1017.00 1017.31 1017.16 1016.89 1016.93 1017.17
1006.77 1007.12 1007.60 1007.45 1007.42 1007.71 1008.10 1008.37 1008.59 1009.37 1010.02 1010.58 1011.28 1012.85 1013.68 1014.00 1014.87 1016.04 1017.17 1017.81 1018.22 1018.62 1018.95 1019.01 1019.16 1019.08 1018.98 1018.88 1018.71 1018.58 1018.11 1017.85 1017.74 1017.60 1017.33 1017.05 1017.08 1016.91 1017.15 1017.04 1016.96 1016.99 1016.89 1016.76
Wind_Speed
4 4 10 13 10 5 4 2 2 0 2 3 6 10 16 10 8 11 7 8 7 8 5 7 7 9 10 8 9 8 8 6 5 2 3 1 1 1 1 1 3 4 3 5
4 10 9 9 7 7 4 2 4 3 3 1 6 15 18 12 6 7 8 8 9 7 7 7 7 7 7 8 8 7 7 6 4 3 2 2 2 1 1 0 1 3 2 3
8 4 11 7 6 8 5 5 4 3 2 3 4 10 5 3 5 7 6 5 5 10 10 7 7 7 8 8 8 7 7 7 5 5 3 3 3 3 2 2 2 2 1 2
5 4 6 5 5 5 4 4 5 3 3 4 3 6 7 2 2 3 6 6 6 6 6 6 7 6 7 6 7 8 7 7 5 5 3 3 2 2 2 2 0 2 2 2
8 6 6 4 4 6 5 1 6 3 3 3 3 3 10 2 4 1 4 6 7 7 8 8 8 8 7 7 7 7 7 7 5 4 4 3 2 1 1 1 1 2 2 2
2 2 0 4 3 4 7 6 9 6 4 2 7 7 7 2 1 2 3 6 8 8 7 7 6 8 6 6 7 7 7 5 5 3 3 4 4 3 1 0 1 2 2 2
2 1 0 2 7 6 4 6 4 5 4 7 4 3 9 3 1 1 6 7 7 8 8 7 8 8 7 8 7 6 7 6 5 5 4 3 4 3 2 2 2 2 2 2
8 3 9 4 5 8 6 6 7 9 5 4 4 7 6 1 3 4 6 7 6 7 7 8 8 7 7 8 7 7 7 6 6 5 5 4 3 2 1 2 2 2 1 3
7 3 3 4 2 4 7 5 5 7 2 4 5 4 3 4 6 6 6 6 6 6 7 8 7 7 8 8 8 8 8 7 7 6 5 4 4 3 2 2 1 1 0 3
5 5 3 2 1 1 2 3 4 3 4 3 4 4 5 3 4 4 5 5 2 5 6 7 7 8 7 7 7 7 7 8 7 7 6 5 5 4 3 2 1 1 0 2
5 5 3 1 6 8 3 2 2 4 4 6 2 6 4 8 7 7 4 3 4 2 6 7 7 7 8 6 7 7 7 7 7 7 6 6 5 5 3 3 2 2 1 1
7 5 4 6 2 1 0 5 5 6 5 1 3 5 5 8 7 7 3 3 3 3 3 4 7 8 7 8 7 7 6 7 7 6 6 6 5 4 4 3 4 2 2 1
12 5 5 3 4 3 4 5 4 4 3 6 6 6 3 6 5 3 3 4 4 5 7 7 4 5 7 7 7 7 7 7 6 6 6 6 6 6 5 5 4 3 2 2
6 5 6 10 6 9 7 8 7 5 4 5 6 5 7 8 7 3 1 3 4 6 6 5 6 5 4 6 7 7 7 7 7 6 6 6 6 6 5 5 4 3 2 2
5 5 4 3 3 5 5 9 17 11 11 8 6 7 10 9 8 6 4 2 5 6 7 6 5 6 4 4 4 5 6 7 7 7 6 6 5 5 5 5 4 3 3 3
3 3 4 3 4 4 3 4 10 6 3 2 3 4 5 6 8 6 5 5 5 5 5 5 6 6 5 4 4 5 6 6 6 7 7 6 5 6 5 5 4 3 3 3
7 7 4 2 2 2 5 10 9 6 5 12 8 9 7 7 9 8 7 7 5 4 4 5 5 5 5 5 5 5 6 6 6 6 6 6 6 6 6 4 5 4 4 3
8 7 2 3 2 2 6 2 9 7 8 8 4 7 7 8 6 6 5 7 6 5 5 5 5 5 6 6 5 3 3 6 6 6 5 5 6 6 6 4 5 4 3 4
5 8 5 6 4 4 1 5 9 10 9 13 12 7 10 12 8 6 5 5 6 5 3 3 4 4 6 6 6 4 4 4 5 6 6 5 5 5 5 5 5 3 4 3
8 5 6 4 7 10 6 5 7 5 6 8 18 13 16 8 5 4 6 6 6 6 3 5 5 4 5 7 6 6 4 2 3 3 5 6 7 6 6 6 5 1 2 4
8 3 7 4 3 7 6 7 6 8 7 3 12 13 16 7 4 8 8 7 6 5 6 4 5 6 6 6 6 6 5 5 4 2 4 5 5 8 6 5 4 4 2 4
9 9 5 4 4 8 8 3 12 6 2 6 8 6 10 13 15 12 9 8 7 7 6 6 6 7 6 7 6 7 7 6 5 1 2 4 3 3 5 6 3 4 3 2
3 7 8 9 8 2 11 4 5 5 7 5 8 12 17 16 13 12 9 8 6 6 5 4 6 5 4 5 4 4 5 5 4 4 3 2 1 1 2 4 5 2 5 2
3 2 5 6 3 4 6 2 5 5 5 7 11 17 16 15 11 11 9 7 6 4 5 1 2 8 8 7 6 3 3 4 4 4 3 1 0 1 1 2 3 4 3 4
5 6 6 1 2 5 1 2 6 7 10 12 8 11 13 15 10 10 7 6 5 5 3 3 7 4 3 6 7 6 6 4 5 4 3 2 1 3 1 2 3 4 4 4
5 8 6 5 8 4 6 7 8 12 10 11 17 8 6 8 11 9 7 5 5 6 3 5 5 6 6 5 6 6 6 6 4 4 3 2 2 1 4 3 2 5 8 9
Wind_Direction
212 139 205 198 193 152 99 169 307 94 248 240 248 276 276 275 248 265 259 152 113 90 100 110 106 109 105 109 117 121 121 133 119 113 110 67 165 161 56 88 52 315 12 33
88 230 209 195 205 227 261 201 255 283 178 227 309 292 286 284 247 246 172 152 136 115 96 105 116 110 114 131 125 128 134 148 141 133 149 145 164 135 173 137 81 310 32 42
170 231 185 189 185 185 194 176 207 214 314 270 16 292 312 6 92 67 64 125 120 141 141 134 123 126 126 135 145 142 148 138 131 131 115 71 43 21 16 10 55 315 339 15
243 247 144 153 192 138 178 213 185 131 72 234 122 279 307 269 100 100 114 124 146 146 134 142 138 133 141 154 142 137 138 133 139 147 131 138 159 168 219 135 282 323 311 5
230 176 152 139 185 153 210 47 136 119 140 43 287 95 267 235 46 167 188 145 162 174 158 161 158 149 147 142 140 138 132 126 142 154 150 139 109 123 177 105 322 301 289 0
141 268 142 138 88 140 146 73 40 48 72 16 232 159 278 276 160 95 116 158 155 163 161 160 148 130 132 132 136 140 138 144 154 154 134 134 146 151 123 154 35 317 295 12
107 190 134 150 85 18 87 91 17 2 8 219 318 124 250 268 226 131 195 170 163 151 154 155 145 146 145 151 154 156 152 158 169 160 161 151 150 161 183 163 136 38 330 345
149 247 176 195 174 172 171 159 158 197 193 231 349 226 259 3 325 102 82 151 152 154 159 169 164 165 165 170 170 170 169 169 177 174 180 159 159 165 183 164 142 119 292 303
142 189 355 46 43 129 185 178 171 104 37 67 210 266 290 44 47 43 79 134 174 180 173 179 180 177 180 183 185 181 178 180 180 188 175 165 175 168 160 155 120 127 278 287
172 98 336 7 216 43 150 172 100 343 140 226 286 231 224 153 113 77 54 57 144 187 178 184 189 186 194 191 185 187 184 179 179 181 176 176 182 182 181 143 216 187 255 294
116 103 291 48 208 177 149 176 214 125 152 164 176 254 217 161 160 134 109 73 51 180 200 194 197 193 189 183 185 190 187 180 180 180 176 167 183 176 192 186 229 217 166 254
177 99 155 203 256 359 14 195 171 137 241 242 142 264 142 146 147 129 109 25 358 43 39 212 196 185 182 187 187 195 191 186 185 183 172 175 177 181 194 215 234 179 137 275
167 171 110 35 340 358 211 207 204 125 86 194 142 242 170 134 132 111 42 17 16 17 9 3 42 194 199 195 191 195 194 197 184 182 174 182 179 185 201 222 221 165 164 246
116 145 173 197 179 143 182 194 190 142 141 176 214 166 190 184 154 162 52 3 54 43 9 0 7 352 301 236 202 195 199 186 178 185 178 188 192 194 201 212 200 161 154 221
148 138 102 344 35 122 150 175 183 187 191 175 208 184 207 187 178 189 178 61 58 23 17 8 356 350 347 336 279 225 206 178 168 174 186 195 200 203 205 189 189 167 164 195
161 129 116 13 0 53 128 203 198 196 169 103 94 276 208 125 123 150 155 105 68 41 25 2 360 357 348 320 306 254 210 191 169 171 194 187 193 186 203 201 185 191 195 183
132 131 121 214 351 55 323 203 180 174 191 197 182 212 160 144 151 161 146 128 117 69 23 7 355 348 330 329 307 273 214 162 173 177 193 187 182 187 183 206 195 186 201 190
126 103 75 151 41 181 252 241 181 159 205 194 136 176 191 151 119 113 126 128 110 77 34 9 354 351 358 338 335 305 180 162 162 173 196 194 170 188 174 182 228 183 185 185
148 119 124 138 195 282 246 175 153 169 240 199 188 171 131 126 103 56 90 100 106 90 55 15 356 1 357 354 339 30 96 136 165 183 187 191 179 176 191 173 221 207 170 167
133 93 122 150 141 207 229 213 158 121 270 185 180 167 153 152 129 186 150 116 96 81 68 50 23 8 10 355 360 48 49 116 187 228 217 192 172 179 211 184 187 224 201 150
142 106 164 168 165 280 237 159 144 124 237 141 157 161 163 162 162 140 126 99 94 81 56 50 50 46 15 356 13 44 46 31 318 241 213 238 214 158 210 180 163 137 237 143
158 149 175 105 107 255 165 85 165 196 96 122 117 128 119 121 121 126 122 116 104 88 62 33 58 48 15 9 22 25 28 339 345 323 231 199 239 207 163 172 183 142 193 192
185 171 161 172 200 220 177 185 197 145 137 146 122 130 130 131 131 129 126 114 100 90 74 51 62 53 21 10 29 40 341 346 8 38 16 333 34 334 159 171 156 119 150 173
208 141 121 104 215 176 168 87 124 126 123 117 131 135 138 129 128 119 116 115 110 100 86 90 75 48 26 1 9 37 352 5 14 46 3 306 225 84 23 297 171 156 185 177
191 115 140 59 22 68 311 137 131 106 110 105 94 123 127 126 122 120 114 111 99 82 47 47 52 54 14 341 355 352 12 11 17 14 349 313 244 239 183 233 236 199 211 191
184 160 151 197 185 153 183 178 141 133 133 131 127 108 89 119 122 117 106 89 74 64 16 35 31 18 357 359 348 346 2 7 2 357 348 335 287 222 251 215 250 263 250 212